User: anonymous   Login
Location: Unspecified
(0.0000°N, 0.0000°E)
Time: 09:47:31
(UTC+00:00)
Language:

SO-67 - Orbit

View from above orbital plane
View from above orbital plane
View from above satellite
View from above satellite

Ground track
Ground track

The orbit data is extracted from the following two-line orbital elements,

1 35870U 09049F   17019.75664508  .00004093  00000-0  70436-4 0  9994
2 35870  97.1113  37.9459 0000177 109.3259 337.8803 15.51664261410192
Epoch (UTC): 19 January 2017 18:09:34
Eccentricity: 0.0000177
inclination: 97.1113°
perigee height: 412 km
apogee height: 412 km
right ascension of ascending node: 37.9459°
argument of perigee: 109.3259°
revolutions per day: 15.51664261
mean anomaly at epoch: 337.8803°
orbit number at epoch: 41019

The dashed part of the orbit path shows where the satellite is in the earth's shadow,  

DLR